Flag for Germany Weather past 2 weeks in Prenzlau, Brandenburg, Germany

Now
19 °F

Clear.


Feels Like: 13 °F
Forecast: 23 / 32 °F
Wind: 5 mph from Northwest

Location: Szczecin Airport

Current Time: Dec 28, 2014 at 7:47:55 AM

Latest Report: Dec 28, 2014 at 7:00 AM


Visibility: 5 mi

Pressure: 30.07 "Hg

Humidity: 100%

Dew point: 19 °F

Location of PrenzlauLocation

Historic Weather in Prenzlau — Graph

°F

Prenzlau temperature yesterday

Maximum temperature yesterday: 28 °F (at 2:00 PM)
Minimum temperature yesterday: 19 °F (at 12:30 AM)
Average temperature yesterday: 24 °F

Past Weeks' High & Low Weather Summary

 TemperatureHumidityPressure
High54 °F (Dec 19, 5:30 AM)100% (Dec 14, 1:30 AM)30.27 "Hg (Dec 14, 1:30 AM)
Low16 °F (Dec 28, 2:00 AM)54% (Dec 23, 1:30 AM)29.53 "Hg (Dec 19, 1:00 PM)
Average39 °F93%29.82 "Hg
* Reported Dec 13 7:00 AM — Dec 28 7:00 AM, Prenzlau, Weather by CustomWeather, © 2014

Note: Actual official high and low records may vary slightly from our data, if they occured in-between our weather recording intervals... More about our weather records

Advertising

Prenzlau weather history for previous 24 hours

 ConditionsComfort  
Time TempWeatherWind HumidityBarometerVisibility
7:00 AM
Dec 28
19 °FClear.5 mph100%30.07 "Hg5 mi
6:30 AM19 °FClear.No wind93%30.07 "Hg4 mi
6:00 AM18 °FPassing clouds.No wind93%30.07 "Hg4 mi
5:30 AM18 °FPassing clouds.5 mph100%30.07 "Hg5 mi
4:30 AM18 °FClear.No wind100%30.04 "Hg5 mi
4:00 AM18 °FClear.No wind100%30.04 "Hg4 mi
3:30 AM18 °FClear.No wind93%30.04 "Hg4 mi
3:00 AM16 °FClear.No wind100%30.04 "Hg4 mi
2:30 AM16 °FClear.No wind100%30.01 "Hg4 mi
2:00 AM16 °FClear.No wind100%30.01 "Hg5 mi
1:30 AM18 °FClear.3 mph100%30.01 "Hg5 mi
1:00 AM18 °FClear.3 mph93%29.98 "Hg5 mi
12:30 AM19 °FClear.3 mph93%29.98 "Hg10 mi
12:00 AM19 °FClear.3 mph93%29.98 "Hg10 mi
11:30 PM
Dec 27
21 °FClear.3 mph93%29.98 "Hg10 mi
11:00 PM21 °FPassing clouds.5 mph93%29.95 "HgN/A
10:30 PM21 °FPassing clouds.3 mph93%29.95 "HgN/A
10:00 PM21 °FPassing clouds.3 mph93%29.95 "HgN/A
9:30 PM23 °FPassing clouds.3 mph86%29.95 "HgN/A
9:00 PM23 °FPassing clouds.3 mph93%29.95 "HgN/A
8:30 PM25 °FPassing clouds.3 mph80%29.92 "HgN/A
8:00 PM25 °FPassing clouds.3 mph80%29.92 "HgN/A
7:30 PM27 °FPassing clouds.6 mph80%29.92 "HgN/A
7:00 PM27 °FPassing clouds.7 mph80%29.92 "HgN/A
6:30 PM27 °FPassing clouds.8 mph80%29.92 "HgN/A
6:00 PM25 °FPassing clouds.6 mph86%29.92 "HgN/A
5:30 PM27 °FPassing clouds.6 mph86%29.92 "HgN/A
5:00 PM27 °FPassing clouds.6 mph86%29.92 "HgN/A
4:30 PM27 °FSnow flurries. Passing clouds.6 mph86%29.92 "HgN/A
4:00 PM27 °FPassing clouds.7 mph93%29.89 "HgN/A
3:30 PM27 °FPartly sunny.7 mph93%29.89 "HgN/A
3:00 PM28 °FPartly sunny.7 mph86%29.89 "HgN/A
2:30 PM28 °FPartly sunny.6 mph86%29.89 "HgN/A
2:00 PM28 °FPartly sunny.6 mph80%29.92 "HgN/A
1:30 PM27 °FPartly sunny.6 mph86%29.92 "HgN/A
1:00 PM27 °FPartly sunny.8 mph86%29.92 "HgN/A
12:30 PM27 °FScattered clouds.9 mph86%29.92 "HgN/A
12:00 PM27 °FPartly sunny.8 mph86%29.92 "HgN/A
11:30 AM27 °FPartly sunny.8 mph86%29.95 "HgN/A
11:00 AM27 °FPassing clouds.7 mph93%29.95 "Hg5 mi
10:30 AM27 °FClear.5 mph93%29.98 "Hg5 mi
10:00 AM25 °FScattered clouds.6 mph100%29.98 "Hg5 mi
9:30 AM25 °FBroken clouds.7 mph100%29.98 "Hg5 mi
9:00 AM25 °FIce fog.7 mph100%29.98 "Hg2 mi
8:30 AM25 °FBroken clouds.7 mph100%30.01 "Hg4 mi
8:00 AM25 °FPassing clouds.3 mph100%30.01 "Hg4 mi
7:30 AM25 °FPartly cloudy.7 mph100%30.01 "Hg4 mi
7:00 AM25 °FIce fog.6 mph100%30.01 "Hg3 mi
Weather by CustomWeather, © 2014

See weather overviewHow to use our weather pages